Buoy 41936

sailwx.info

Track history (hours):
 
Tides and Currents Weather Stations Pressure Air Temp Water Temp Dewpoint Dewpoint Depression Visibility Wind Speed Wind Dir Waves Ship Positions

Drifting buoy 41936

Last reported at 2014-Oct-25 15:00 UTC. Time now 2014-Oct-25 17:38 UTC.
Position N 27°59' W 063°33'.

Barometer 1011.9 mb
Water temperature 26.9 ° C

Date/timePositionNaut miles runAvg speedWind from/ knotsBaromVisibWave heightAir tempDewpointWater temp
2014-Oct-25 15:00N 27°59' W 063°33'1 1.2 1011.9 26.9
2014-Oct-25 14:00N 27°59' W 063°32'1 0.2 1012.4 26.9
2014-Oct-25 11:00N 27°58' W 063°33'1 0.6 1012.1 26.8
2014-Oct-25 10:00N 27°59' W 063°32'1 1.3 1012.1 26.8
2014-Oct-25 09:00N 27°59' W 063°33'3 3.4 1011.8 26.8
2014-Oct-25 08:00N 27°59' W 063°37'0 0.0 1011.6 26.8
2014-Oct-25 06:00N 27°59' W 063°37'0 0.0 1012.4 26.8
2014-Oct-25 05:00N 27°59' W 063°37'1 0.4 1012.6 26.8
2014-Oct-25 03:00N 27°58' W 063°37'0 0.0 1013.9 26.8
2014-Oct-25 02:00N 27°58' W 063°37'2 0.5 1013.8 26.8
2014-Oct-24 21:00N 27°56' W 063°39'2 2.4 1012.9 26.9
2014-Oct-24 20:00N 27°54' W 063°40'0 0.0 1012.7 26.9
2014-Oct-24 18:00N 27°54' W 063°40'0 0.0 1012.9 26.9
2014-Oct-24 17:00N 27°54' W 063°40'1 1.2 1013.3 26.9
2014-Oct-24 16:00N 27°53' W 063°40'0 0.0 1014.2 26.9
2014-Oct-24 15:00N 27°53' W 063°40'0 0.0 1014.7 26.9
2014-Oct-24 14:00N 27°53' W 063°40'0 0.0 1014.8 26.9
2014-Oct-24 13:00N 27°53' W 063°40'1 0.5 1014.6 26.9
2014-Oct-24 11:00N 27°52' W 063°39'1 0.9 1013.5 26.8
2014-Oct-24 10:00N 27°53' W 063°39'0 0.0 1013.2 26.8
2014-Oct-24 09:00N 27°53' W 063°39'0 0.1 1013.1 26.8
2014-Oct-24 08:00N 27°53' W 063°39'4 0.6 1012.9 26.8
2014-Oct-24 02:00N 27°54' W 063°43'3 0.7 1014.7 26.8
2014-Oct-23 22:00N 27°52' W 063°45'2 1.0 1013.4 26.8
2014-Oct-23 20:00N 27°51' W 063°47'1 0.6 1013.0 26.8
2014-Oct-23 18:00N 27°50' W 063°47'1 0.5 1013.1 26.8
2014-Oct-23 15:00N 27°48' W 063°47'0 0.0 1014.9 26.8
2014-Oct-23 14:00N 27°48' W 063°47'1 0.7 1015.1 26.8
2014-Oct-23 13:00N 27°48' W 063°46'2 0.5 1014.9 26.8
2014-Oct-23 10:00N 27°49' W 063°45'2 0.9 1013.8 26.8
2014-Oct-23 08:00N 27°50' W 063°47'0 0.0 1013.1 26.8
2014-Oct-23 06:00N 27°50' W 063°47'4 1.0 1014.3 26.8
2014-Oct-23 02:00N 27°49' W 063°51'3 2.5 1015.8 26.8
2014-Oct-23 01:00N 27°48' W 063°53'0 0.0 1015.6 26.8
2014-Oct-23 00:00N 27°48' W 063°53'0 0.0 1015.5 26.8
2014-Oct-22 23:00N 27°48' W 063°53'2 1.8 1015.2 26.8
2014-Oct-22 22:00N 27°47' W 063°52'1 0.3 1015.2 26.9
2014-Oct-22 18:00N 27°46' W 063°53'1 0.9 1015.5 26.9
2014-Oct-22 17:00N 27°46' W 063°52'1 0.3 1015.5 26.9
2014-Oct-22 15:00N 27°46' W 063°53'1 0.9 1017.1 26.9
2014-Oct-22 14:00N 27°45' W 063°53'0 0.0 1017.1 26.8
2014-Oct-22 11:00N 27°45' W 063°53'0 0.1 1016.1 26.8
2014-Oct-22 10:00N 27°45' W 063°53'0 0.5 1015.6 26.8
2014-Oct-22 09:00N 27°46' W 063°53'0 0.4 1015.3 26.8
2014-Oct-22 08:00N 27°46' W 063°53'0 0.4 1015.2 26.8
2014-Oct-22 07:00N 27°46' W 063°53'2 0.5 1015.8 26.8
2014-Oct-22 02:00N 27°45' W 063°56'2 0.8 1017.8 26.9
2014-Oct-22 00:00N 27°45' W 063°57'0 0.1 1017.0 26.9
2014-Oct-21 23:00N 27°45' W 063°57'1 0.3 1016.6 26.9
2014-Oct-21 18:00N 27°43' W 063°58'1 0.2 1016.1 27.2
2014-Oct-21 14:00N 27°43' W 063°58'0 0.0 1017.8 26.9
2014-Oct-21 11:00N 27°43' W 063°58'0 0.2 1017.0 26.8
2014-Oct-21 10:00N 27°43' W 063°58'1 0.7 1016.5 26.8
2014-Oct-21 09:00N 27°43' W 063°59'0 0.0 1016.2 26.8
2014-Oct-21 08:00N 27°43' W 063°59'0 0.1 1016.0 26.8
2014-Oct-21 07:00N 27°43' W 063°59'2 0.5 1015.9 26.8
2014-Oct-21 03:00N 27°42' W 064°01'1 0.6 1017.1 26.8
2014-Oct-21 02:00N 27°42' W 064°01'1 1.4 1017.4 26.8
2014-Oct-21 01:00N 27°42' W 064°02'1 0.3 1017.3 26.8
2014-Oct-20 23:00N 27°41' W 064°02'1 0.2 1016.7 26.9
2014-Oct-20 20:00N 27°41' W 064°02'1 0.6 1015.8 27.0
2014-Oct-20 18:00N 27°41' W 064°03'1 0.4 1015.7 27.0
2014-Oct-20 14:00N 27°40' W 064°04'0 0.0 1017.7 26.8
2014-Oct-20 13:00N 27°40' W 064°04'0 0.2 1017.5 26.8
2014-Oct-20 11:00N 27°41' W 064°04'0 0.4 1016.0 26.8
2014-Oct-20 10:00N 27°41' W 064°05'1 0.7 1015.4 26.8
2014-Oct-20 09:00N 27°41' W 064°05'0 0.0 1014.9 26.8
2014-Oct-20 07:00N 27°41' W 064°05'1 0.2 1014.7 26.8
2014-Oct-20 02:00N 27°40' W 064°06'2 1.7 1016.1 26.8
2014-Oct-20 01:00N 27°41' W 064°08'2 1.8 1015.7 26.9
2014-Oct-20 00:00N 27°40' W 064°07'1 0.3 1014.9 26.9
2014-Oct-19 21:00N 27°39' W 064°08'0 0.0 1013.7 27.2
2014-Oct-19 20:00N 27°39' W 064°08'0 0.3 1014.0 27.3
2014-Oct-19 19:00N 27°40' W 064°08'0 0.0 1013.9 27.4
2014-Oct-19 18:00N 27°40' W 064°08'1 0.7 1014.2 27.4
2014-Oct-19 16:00N 27°41' W 064°09'0 0.1 1015.4 27.3
2014-Oct-19 15:00N 27°41' W 064°09'1 1.0 1015.4 27.1
2014-Oct-19 14:00N 27°41' W 064°10'2 1.7 1015.6 27.0
2014-Oct-19 13:00N 27°40' W 064°12'1 0.3 1015.4 26.8
2014-Oct-19 09:00N 27°39' W 064°13'0 0.1 1013.8 26.8
2014-Oct-19 07:00N 27°39' W 064°13'2 0.4 1013.6 26.8
2014-Oct-19 02:00N 27°38' W 064°15'0 0.0 1014.8 26.9
2014-Oct-19 01:00N 27°38' W 064°15'0 0.0 1014.6 26.9
2014-Oct-18 23:00N 27°38' W 064°15'0 0.3 1013.7 27.1
2014-Oct-18 22:00N 27°38' W 064°15'0 0.2 1012.9 27.2
2014-Oct-18 21:00N 27°38' W 064°15'3 1.3 1012.6 27.3
2014-Oct-18 19:00N 27°40' W 064°17'2 1.9 1012.3 27.6
2014-Oct-18 18:00N 27°39' W 064°15'2 0.8 1012.7 27.6
2014-Oct-18 15:00N 27°40' W 064°17'1 1.4 1013.3 27.2
2014-Oct-18 14:00N 27°41' W 064°19'2 0.8 1013.6 26.9
2014-Oct-18 11:00N 27°39' W 064°21'1 0.9 1012.1 26.7
2014-Oct-18 10:00N 27°38' W 064°21'1 0.6 1011.3 26.7
2014-Oct-18 09:00N 27°38' W 064°22'0 0.1 1010.9 26.8
2014-Oct-18 07:00N 27°38' W 064°22'1 0.1 1010.5 26.8
2014-Oct-18 02:00N 27°38' W 064°21'0 0.1 1011.0 26.8
2014-Oct-18 01:00N 27°38' W 064°21'2 0.8 1011.0 26.8
2014-Oct-17 23:00N 27°39' W 064°23'1 0.5 1010.2 26.8
2014-Oct-17 21:00N 27°39' W 064°24'1 0.7 1009.1 26.8
2014-Oct-17 19:00N 27°39' W 064°25'0 0.0 1009.4 26.8
2014-Oct-17 17:00N 27°39' W 064°25'2 1.0 1009.2 26.8
2014-Oct-17 15:00N 27°40' W 064°27'1 0.8 1010.2 26.8
2014-Oct-17 14:00N 27°40' W 064°27'4 1.3 1010.0 26.8
2014-Oct-17 11:00N 27°39' W 064°31'1 0.7 1024.0 -0.1
2014-Oct-17 09:00N 27°38' W 064°32'0 0.3 1006.7 26.8
2014-Oct-17 08:00N 27°38' W 064°32'1 0.8 1006.7 26.8
2014-Oct-17 07:00N 27°38' W 064°33'0 0.0 1007.3 26.8
2014-Oct-17 06:00N 27°38' W 064°33'3 0.7 1008.1 26.8
2014-Oct-17 02:00N 27°37' W 064°36'4 1.9 1009.9 26.9
2014-Oct-17 00:00N 27°36' W 064°40'0 0.0 1010.0 26.9
2014-Oct-16 22:00N 27°36' W 064°40'2 0.7 1010.7 26.9
2014-Oct-16 19:00N 27°35' W 064°42'4 0.5 1010.7 26.9
2014-Oct-16 11:00N 27°31' W 064°43'3 0.3 1013.4 26.9
2014-Oct-16 02:00N 27°32' W 064°46'3 2.6 1016.2 26.9
2014-Oct-16 01:00N 27°33' W 064°49'0 0.0 1016.1 26.9
2014-Oct-16 00:00N 27°33' W 064°49'0 0.0 1016.2 26.9
2014-Oct-15 23:00N 27°33' W 064°49'6 1.3 1015.8 27.0
2014-Oct-15 18:00N 27°29' W 064°54'1 0.3 1016.6 27.0
2014-Oct-15 15:00N 27°28' W 064°54'   1018.2 27.1
Track history (hours):
 
Tides and Currents Weather Stations Pressure Air Temp Water Temp Dewpoint Dewpoint Depression Visibility Wind Speed Wind Dir Waves Ship Positions

Drifting buoy 41936

Last reported at 2014-Oct-25 15:00 UTC. Time now 2014-Oct-25 17:38 UTC.
Position N 27°59' W 063°33'.

Barometer 1011.9 mb
Water temperature 26.9 ° C

Date/timePositionNaut miles runAvg speedWind from/ knotsBaromVisibWave heightAir tempDewpointWater temp
2014-Oct-25 15:00N 27°59' W 063°33'1 1.2 1011.9 26.9
2014-Oct-25 14:00N 27°59' W 063°32'1 0.2 1012.4 26.9
2014-Oct-25 11:00N 27°58' W 063°33'1 0.6 1012.1 26.8
2014-Oct-25 10:00N 27°59' W 063°32'1 1.3 1012.1 26.8
2014-Oct-25 09:00N 27°59' W 063°33'3 3.4 1011.8 26.8
2014-Oct-25 08:00N 27°59' W 063°37'0 0.0 1011.6 26.8
2014-Oct-25 06:00N 27°59' W 063°37'0 0.0 1012.4 26.8
2014-Oct-25 05:00N 27°59' W 063°37'1 0.4 1012.6 26.8
2014-Oct-25 03:00N 27°58' W 063°37'0 0.0 1013.9 26.8
2014-Oct-25 02:00N 27°58' W 063°37'2 0.5 1013.8 26.8
2014-Oct-24 21:00N 27°56' W 063°39'2 2.4 1012.9 26.9
2014-Oct-24 20:00N 27°54' W 063°40'0 0.0 1012.7 26.9
2014-Oct-24 18:00N 27°54' W 063°40'0 0.0 1012.9 26.9
2014-Oct-24 17:00N 27°54' W 063°40'1 1.2 1013.3 26.9
2014-Oct-24 16:00N 27°53' W 063°40'0 0.0 1014.2 26.9
2014-Oct-24 15:00N 27°53' W 063°40'0 0.0 1014.7 26.9
2014-Oct-24 14:00N 27°53' W 063°40'0 0.0 1014.8 26.9
2014-Oct-24 13:00N 27°53' W 063°40'1 0.5 1014.6 26.9
2014-Oct-24 11:00N 27°52' W 063°39'1 0.9 1013.5 26.8
2014-Oct-24 10:00N 27°53' W 063°39'0 0.0 1013.2 26.8
2014-Oct-24 09:00N 27°53' W 063°39'0 0.1 1013.1 26.8
2014-Oct-24 08:00N 27°53' W 063°39'4 0.6 1012.9 26.8
2014-Oct-24 02:00N 27°54' W 063°43'3 0.7 1014.7 26.8
2014-Oct-23 22:00N 27°52' W 063°45'2 1.0 1013.4 26.8
2014-Oct-23 20:00N 27°51' W 063°47'1 0.6 1013.0 26.8
2014-Oct-23 18:00N 27°50' W 063°47'1 0.5 1013.1 26.8
2014-Oct-23 15:00N 27°48' W 063°47'0 0.0 1014.9 26.8
2014-Oct-23 14:00N 27°48' W 063°47'1 0.7 1015.1 26.8
2014-Oct-23 13:00N 27°48' W 063°46'2 0.5 1014.9 26.8
2014-Oct-23 10:00N 27°49' W 063°45'2 0.9 1013.8 26.8
2014-Oct-23 08:00N 27°50' W 063°47'0 0.0 1013.1 26.8
2014-Oct-23 06:00N 27°50' W 063°47'4 1.0 1014.3 26.8
2014-Oct-23 02:00N 27°49' W 063°51'3 2.5 1015.8 26.8
2014-Oct-23 01:00N 27°48' W 063°53'0 0.0 1015.6 26.8
2014-Oct-23 00:00N 27°48' W 063°53'0 0.0 1015.5 26.8
2014-Oct-22 23:00N 27°48' W 063°53'2 1.8 1015.2 26.8
2014-Oct-22 22:00N 27°47' W 063°52'1 0.3 1015.2 26.9
2014-Oct-22 18:00N 27°46' W 063°53'1 0.9 1015.5 26.9
2014-Oct-22 17:00N 27°46' W 063°52'1 0.3 1015.5 26.9
2014-Oct-22 15:00N 27°46' W 063°53'1 0.9 1017.1 26.9
2014-Oct-22 14:00N 27°45' W 063°53'0 0.0 1017.1 26.8
2014-Oct-22 11:00N 27°45' W 063°53'0 0.1 1016.1 26.8
2014-Oct-22 10:00N 27°45' W 063°53'0 0.5 1015.6 26.8
2014-Oct-22 09:00N 27°46' W 063°53'0 0.4 1015.3 26.8
2014-Oct-22 08:00N 27°46' W 063°53'0 0.4 1015.2 26.8
2014-Oct-22 07:00N 27°46' W 063°53'2 0.5 1015.8 26.8
2014-Oct-22 02:00N 27°45' W 063°56'2 0.8 1017.8 26.9
2014-Oct-22 00:00N 27°45' W 063°57'0 0.1 1017.0 26.9
2014-Oct-21 23:00N 27°45' W 063°57'1 0.3 1016.6 26.9
2014-Oct-21 18:00N 27°43' W 063°58'1 0.2 1016.1 27.2
2014-Oct-21 14:00N 27°43' W 063°58'0 0.0 1017.8 26.9
2014-Oct-21 11:00N 27°43' W 063°58'0 0.2 1017.0 26.8
2014-Oct-21 10:00N 27°43' W 063°58'1 0.7 1016.5 26.8
2014-Oct-21 09:00N 27°43' W 063°59'0 0.0 1016.2 26.8
2014-Oct-21 08:00N 27°43' W 063°59'0 0.1 1016.0 26.8
2014-Oct-21 07:00N 27°43' W 063°59'2 0.5 1015.9 26.8
2014-Oct-21 03:00N 27°42' W 064°01'1 0.6 1017.1 26.8
2014-Oct-21 02:00N 27°42' W 064°01'1 1.4 1017.4 26.8
2014-Oct-21 01:00N 27°42' W 064°02'1 0.3 1017.3 26.8
2014-Oct-20 23:00N 27°41' W 064°02'1 0.2 1016.7 26.9
2014-Oct-20 20:00N 27°41' W 064°02'1 0.6 1015.8 27.0
2014-Oct-20 18:00N 27°41' W 064°03'1 0.4 1015.7 27.0
2014-Oct-20 14:00N 27°40' W 064°04'0 0.0 1017.7 26.8
2014-Oct-20 13:00N 27°40' W 064°04'0 0.2 1017.5 26.8
2014-Oct-20 11:00N 27°41' W 064°04'0 0.4 1016.0 26.8
2014-Oct-20 10:00N 27°41' W 064°05'1 0.7 1015.4 26.8
2014-Oct-20 09:00N 27°41' W 064°05'0 0.0 1014.9 26.8
2014-Oct-20 07:00N 27°41' W 064°05'1 0.2 1014.7 26.8
2014-Oct-20 02:00N 27°40' W 064°06'2 1.7 1016.1 26.8
2014-Oct-20 01:00N 27°41' W 064°08'2 1.8 1015.7 26.9
2014-Oct-20 00:00N 27°40' W 064°07'1 0.3 1014.9 26.9
2014-Oct-19 21:00N 27°39' W 064°08'0 0.0 1013.7 27.2
2014-Oct-19 20:00N 27°39' W 064°08'0 0.3 1014.0 27.3
2014-Oct-19 19:00N 27°40' W 064°08'0 0.0 1013.9 27.4
2014-Oct-19 18:00N 27°40' W 064°08'1 0.7 1014.2 27.4
2014-Oct-19 16:00N 27°41' W 064°09'0 0.1 1015.4 27.3
2014-Oct-19 15:00N 27°41' W 064°09'1 1.0 1015.4 27.1
2014-Oct-19 14:00N 27°41' W 064°10'2 1.7 1015.6 27.0
2014-Oct-19 13:00N 27°40' W 064°12'1 0.3 1015.4 26.8
2014-Oct-19 09:00N 27°39' W 064°13'0 0.1 1013.8 26.8
2014-Oct-19 07:00N 27°39' W 064°13'2 0.4 1013.6 26.8
2014-Oct-19 02:00N 27°38' W 064°15'0 0.0 1014.8 26.9
2014-Oct-19 01:00N 27°38' W 064°15'0 0.0 1014.6 26.9
2014-Oct-18 23:00N 27°38' W 064°15'0 0.3 1013.7 27.1
2014-Oct-18 22:00N 27°38' W 064°15'0 0.2 1012.9 27.2
2014-Oct-18 21:00N 27°38' W 064°15'3 1.3 1012.6 27.3
2014-Oct-18 19:00N 27°40' W 064°17'2 1.9 1012.3 27.6
2014-Oct-18 18:00N 27°39' W 064°15'2 0.8 1012.7 27.6
2014-Oct-18 15:00N 27°40' W 064°17'1 1.4 1013.3 27.2
2014-Oct-18 14:00N 27°41' W 064°19'2 0.8 1013.6 26.9
2014-Oct-18 11:00N 27°39' W 064°21'1 0.9 1012.1 26.7
2014-Oct-18 10:00N 27°38' W 064°21'1 0.6 1011.3 26.7
2014-Oct-18 09:00N 27°38' W 064°22'0 0.1 1010.9 26.8
2014-Oct-18 07:00N 27°38' W 064°22'1 0.1 1010.5 26.8
2014-Oct-18 02:00N 27°38' W 064°21'0 0.1 1011.0 26.8
2014-Oct-18 01:00N 27°38' W 064°21'2 0.8 1011.0 26.8
2014-Oct-17 23:00N 27°39' W 064°23'1 0.5 1010.2 26.8
2014-Oct-17 21:00N 27°39' W 064°24'1 0.7 1009.1 26.8
2014-Oct-17 19:00N 27°39' W 064°25'0 0.0 1009.4 26.8
2014-Oct-17 17:00N 27°39' W 064°25'2 1.0 1009.2 26.8
2014-Oct-17 15:00N 27°40' W 064°27'1 0.8 1010.2 26.8
2014-Oct-17 14:00N 27°40' W 064°27'4 1.3 1010.0 26.8
2014-Oct-17 11:00N 27°39' W 064°31'1 0.7 1024.0 -0.1
2014-Oct-17 09:00N 27°38' W 064°32'0 0.3 1006.7 26.8
2014-Oct-17 08:00N 27°38' W 064°32'1 0.8 1006.7 26.8
2014-Oct-17 07:00N 27°38' W 064°33'0 0.0 1007.3 26.8
2014-Oct-17 06:00N 27°38' W 064°33'3 0.7 1008.1 26.8
2014-Oct-17 02:00N 27°37' W 064°36'4 1.9 1009.9 26.9
2014-Oct-17 00:00N 27°36' W 064°40'0 0.0 1010.0 26.9
2014-Oct-16 22:00N 27°36' W 064°40'2 0.7 1010.7 26.9
2014-Oct-16 19:00N 27°35' W 064°42'4 0.5 1010.7 26.9
2014-Oct-16 11:00N 27°31' W 064°43'3 0.3 1013.4 26.9
2014-Oct-16 02:00N 27°32' W 064°46'3 2.6 1016.2 26.9
2014-Oct-16 01:00N 27°33' W 064°49'0 0.0 1016.1 26.9
2014-Oct-16 00:00N 27°33' W 064°49'0 0.0 1016.2 26.9
2014-Oct-15 23:00N 27°33' W 064°49'6 1.3 1015.8 27.0
2014-Oct-15 18:00N 27°29' W 064°54'1 0.3 1016.6 27.0
2014-Oct-15 15:00N 27°28' W 064°54'   1018.2 27.1

Dump ship's entire track history